Year,Month,Day,Hour,Minute,Value (Times are PST for temperature in C)
2018,10,22,00,00,4.30
2018,10,22,00,01,4.30
2018,10,22,00,02,4.30
2018,10,22,00,03,4.30
2018,10,22,00,04,4.30
2018,10,22,00,05,4.30
2018,10,22,00,06,4.30
2018,10,22,00,07,4.30
2018,10,22,00,08,4.20
2018,10,22,00,09,4.20
2018,10,22,00,10,4.20
2018,10,22,00,11,4.20
2018,10,22,00,12,4.30
2018,10,22,00,13,4.30
2018,10,22,00,14,4.30
2018,10,22,00,15,4.30
2018,10,22,00,16,4.30
2018,10,22,00,17,4.30
2018,10,22,00,18,4.30
2018,10,22,00,19,4.30
2018,10,22,00,20,4.30
2018,10,22,00,21,4.30
2018,10,22,00,22,4.30
2018,10,22,00,23,4.30
2018,10,22,00,24,4.30
2018,10,22,00,25,4.20
2018,10,22,00,26,4.20
2018,10,22,00,27,4.20
2018,10,22,00,28,4.20
2018,10,22,00,29,4.20
2018,10,22,00,30,4.20
2018,10,22,00,31,4.20
2018,10,22,00,32,4.10
2018,10,22,00,33,4.10
2018,10,22,00,34,4.10
2018,10,22,00,35,4.10
2018,10,22,00,36,4.10
2018,10,22,00,37,4.10
2018,10,22,00,38,4.10
2018,10,22,00,39,4.10
2018,10,22,00,40,4.10
2018,10,22,00,41,4.00
2018,10,22,00,42,4.00
2018,10,22,00,43,4.00
2018,10,22,00,44,3.90
2018,10,22,00,45,3.90
2018,10,22,00,46,3.90
2018,10,22,00,47,3.90
2018,10,22,00,48,3.90
2018,10,22,00,49,3.90
2018,10,22,00,50,3.90
2018,10,22,00,51,3.80
2018,10,22,00,52,3.80
2018,10,22,00,53,3.80
2018,10,22,00,54,3.80
2018,10,22,00,55,3.80
2018,10,22,00,56,3.80
2018,10,22,00,57,3.70
2018,10,22,00,58,3.70
2018,10,22,00,59,3.70
2018,10,22,01,00,3.60
2018,10,22,01,01,3.60
2018,10,22,01,02,3.60
2018,10,22,01,03,3.60
2018,10,22,01,04,3.50
2018,10,22,01,05,3.50
2018,10,22,01,06,3.50
2018,10,22,01,07,3.40
2018,10,22,01,08,3.40
2018,10,22,01,09,3.40
2018,10,22,01,10,3.40
2018,10,22,01,11,3.50
2018,10,22,01,12,3.50
2018,10,22,01,13,3.60
2018,10,22,01,14,3.60
2018,10,22,01,15,3.60
2018,10,22,01,16,3.60
2018,10,22,01,17,3.60
2018,10,22,01,18,3.60
2018,10,22,01,19,3.60
2018,10,22,01,20,3.60
2018,10,22,01,21,3.70
2018,10,22,01,22,3.60
2018,10,22,01,23,3.70
2018,10,22,01,24,3.70
2018,10,22,01,25,3.70
2018,10,22,01,26,3.70
2018,10,22,01,27,3.70
2018,10,22,01,28,3.70
2018,10,22,01,29,3.70
2018,10,22,01,30,3.70
2018,10,22,01,31,3.70
2018,10,22,01,32,3.70
2018,10,22,01,33,3.70
2018,10,22,01,34,3.70
2018,10,22,01,35,3.70
2018,10,22,01,36,3.60
2018,10,22,01,37,3.60
2018,10,22,01,38,3.60
2018,10,22,01,39,3.60
2018,10,22,01,40,3.50
2018,10,22,01,41,3.50
2018,10,22,01,42,3.50
2018,10,22,01,43,3.40
2018,10,22,01,44,3.40
2018,10,22,01,45,3.40
2018,10,22,01,46,3.40
2018,10,22,01,47,3.40
2018,10,22,01,48,3.40
2018,10,22,01,49,3.30
2018,10,22,01,50,3.30
2018,10,22,01,51,3.30
2018,10,22,01,52,3.30
2018,10,22,01,53,3.30
2018,10,22,01,54,3.30
2018,10,22,01,55,3.30
2018,10,22,01,56,3.30
2018,10,22,01,57,3.30
2018,10,22,01,58,3.30
2018,10,22,01,59,3.30
2018,10,22,02,00,3.30
2018,10,22,02,01,3.30
2018,10,22,02,02,3.30
2018,10,22,02,03,3.30
2018,10,22,02,04,3.30
2018,10,22,02,05,3.30
2018,10,22,02,06,3.30
2018,10,22,02,07,3.30
2018,10,22,02,08,3.30
2018,10,22,02,09,3.30
2018,10,22,02,10,3.20
2018,10,22,02,11,3.20
2018,10,22,02,12,3.20
2018,10,22,02,13,3.20
2018,10,22,02,14,3.20
2018,10,22,02,15,3.20
2018,10,22,02,16,3.20
2018,10,22,02,17,3.30
2018,10,22,02,18,3.30
2018,10,22,02,19,3.30
2018,10,22,02,20,3.20
2018,10,22,02,21,3.20
2018,10,22,02,22,3.20
2018,10,22,02,23,3.20
2018,10,22,02,24,3.10
2018,10,22,02,25,3.10
2018,10,22,02,26,3.10
2018,10,22,02,27,3.00
2018,10,22,02,28,3.00
2018,10,22,02,29,3.00
2018,10,22,02,30,2.90
2018,10,22,02,31,2.90
2018,10,22,02,32,2.90
2018,10,22,02,33,2.90
2018,10,22,02,34,2.90
2018,10,22,02,35,2.90
2018,10,22,02,36,2.90
2018,10,22,02,37,2.90
2018,10,22,02,38,2.90
2018,10,22,02,39,2.90
2018,10,22,02,40,2.90
2018,10,22,02,41,2.80
2018,10,22,02,42,2.80
2018,10,22,02,43,2.80
2018,10,22,02,44,2.70
2018,10,22,02,45,2.70
2018,10,22,02,46,2.70
2018,10,22,02,47,2.70
2018,10,22,02,48,2.60
2018,10,22,02,49,2.60
2018,10,22,02,50,2.60
2018,10,22,02,51,2.60
2018,10,22,02,52,2.60
2018,10,22,02,53,2.70
2018,10,22,02,54,2.70
2018,10,22,02,55,2.70
2018,10,22,02,56,2.70
2018,10,22,02,57,2.70
2018,10,22,02,58,2.70
2018,10,22,02,59,2.70
2018,10,22,03,00,2.70
2018,10,22,03,01,2.70
2018,10,22,03,02,2.70
2018,10,22,03,03,2.70
2018,10,22,03,04,2.70
2018,10,22,03,05,2.70
2018,10,22,03,06,2.70
2018,10,22,03,07,2.70
2018,10,22,03,08,2.70
2018,10,22,03,09,2.70
2018,10,22,03,10,2.60
2018,10,22,03,11,2.60
2018,10,22,03,12,2.60
2018,10,22,03,13,2.60
2018,10,22,03,14,2.60
2018,10,22,03,15,2.60
2018,10,22,03,16,2.60
2018,10,22,03,17,2.60
2018,10,22,03,18,2.60
2018,10,22,03,19,2.60
2018,10,22,03,20,2.60
2018,10,22,03,21,2.50
2018,10,22,03,22,2.50
2018,10,22,03,23,2.50
2018,10,22,03,24,2.40
2018,10,22,03,25,2.40
2018,10,22,03,26,2.40
2018,10,22,03,27,2.40
2018,10,22,03,28,2.40
2018,10,22,03,29,2.40
2018,10,22,03,30,2.40
2018,10,22,03,31,2.40
2018,10,22,03,32,2.40
2018,10,22,03,33,2.40
2018,10,22,03,34,2.40
2018,10,22,03,35,2.40
2018,10,22,03,36,2.40
2018,10,22,03,37,2.40
2018,10,22,03,38,2.40
2018,10,22,03,39,2.40
2018,10,22,03,40,2.40
2018,10,22,03,41,2.40
2018,10,22,03,42,2.40
2018,10,22,03,43,2.40
2018,10,22,03,44,2.30
2018,10,22,03,45,2.30
2018,10,22,03,46,2.30
2018,10,22,03,47,2.30
2018,10,22,03,48,2.30
2018,10,22,03,49,2.30
2018,10,22,03,50,2.30
2018,10,22,03,51,2.30
2018,10,22,03,52,2.30
2018,10,22,03,53,2.30
2018,10,22,03,54,2.30
2018,10,22,03,55,2.30
2018,10,22,03,56,2.30
2018,10,22,03,57,2.30
2018,10,22,03,58,2.30
2018,10,22,03,59,2.30
2018,10,22,04,00,2.30
2018,10,22,04,01,2.30
2018,10,22,04,02,2.30
2018,10,22,04,03,2.30
2018,10,22,04,04,2.30
2018,10,22,04,05,2.30
2018,10,22,04,06,2.30
2018,10,22,04,07,2.30
2018,10,22,04,08,2.20
2018,10,22,04,09,2.20
2018,10,22,04,10,2.20
2018,10,22,04,11,2.20
2018,10,22,04,12,2.20
2018,10,22,04,13,2.20
2018,10,22,04,14,2.20
2018,10,22,04,15,2.20
2018,10,22,04,16,2.20
2018,10,22,04,17,2.20
2018,10,22,04,18,2.20
2018,10,22,04,19,2.20
2018,10,22,04,20,2.20
2018,10,22,04,21,2.20
2018,10,22,04,22,2.20
2018,10,22,04,23,2.10
2018,10,22,04,24,2.10
2018,10,22,04,25,2.10
2018,10,22,04,26,2.10
2018,10,22,04,27,2.10
2018,10,22,04,28,2.10
2018,10,22,04,29,2.00
2018,10,22,04,30,2.00
2018,10,22,04,31,2.00
2018,10,22,04,32,2.00
2018,10,22,04,33,2.00
2018,10,22,04,34,2.00
2018,10,22,04,35,2.00
2018,10,22,04,36,2.00
2018,10,22,04,37,2.00
2018,10,22,04,38,2.00
2018,10,22,04,39,2.00
2018,10,22,04,40,2.00
2018,10,22,04,41,2.00
2018,10,22,04,42,2.00
2018,10,22,04,43,2.00
2018,10,22,04,44,2.00
2018,10,22,04,45,2.00
2018,10,22,04,46,2.00
2018,10,22,04,47,2.00
2018,10,22,04,48,2.00
2018,10,22,04,49,2.00
2018,10,22,04,50,2.00
2018,10,22,04,51,2.00
2018,10,22,04,52,2.00
2018,10,22,04,53,2.00
2018,10,22,04,54,2.00
2018,10,22,04,55,1.90
2018,10,22,04,56,1.90
2018,10,22,04,57,1.90
2018,10,22,04,58,1.90
2018,10,22,04,59,1.90
2018,10,22,05,00,1.80
2018,10,22,05,01,1.80
2018,10,22,05,02,1.80
2018,10,22,05,03,1.80
2018,10,22,05,04,1.80
2018,10,22,05,05,1.80
2018,10,22,05,06,1.80
2018,10,22,05,07,1.80
2018,10,22,05,08,1.80
2018,10,22,05,09,1.80
2018,10,22,05,10,1.80
2018,10,22,05,11,1.80
2018,10,22,05,12,1.80
2018,10,22,05,13,1.90
2018,10,22,05,14,1.90
2018,10,22,05,15,1.90
2018,10,22,05,16,1.90
2018,10,22,05,17,2.00
2018,10,22,05,18,2.00
2018,10,22,05,19,2.00
2018,10,22,05,20,2.00
2018,10,22,05,21,1.90
2018,10,22,05,22,1.90
2018,10,22,05,23,1.90
2018,10,22,05,24,1.90
2018,10,22,05,25,1.90
2018,10,22,05,26,1.90
2018,10,22,05,27,1.80
2018,10,22,05,28,1.80
2018,10,22,05,29,1.80
2018,10,22,05,30,1.80
2018,10,22,05,31,1.80
2018,10,22,05,32,1.80
2018,10,22,05,33,1.70
2018,10,22,05,34,1.70
2018,10,22,05,35,1.70
2018,10,22,05,36,1.70
2018,10,22,05,37,1.70
2018,10,22,05,38,1.60
2018,10,22,05,39,1.60
2018,10,22,05,40,1.60
2018,10,22,05,41,1.60
2018,10,22,05,42,1.60
2018,10,22,05,43,1.60
2018,10,22,05,44,1.60
2018,10,22,05,45,1.50
2018,10,22,05,46,1.50
2018,10,22,05,47,1.50
2018,10,22,05,48,1.50
2018,10,22,05,49,1.50
2018,10,22,05,50,1.50
2018,10,22,05,51,1.50
2018,10,22,05,52,1.50
2018,10,22,05,53,1.60
2018,10,22,05,54,1.60
2018,10,22,05,55,1.60
2018,10,22,05,56,1.60
2018,10,22,05,57,1.60
2018,10,22,05,58,1.60
2018,10,22,05,59,1.60
2018,10,22,06,00,1.60
2018,10,22,06,01,1.70
2018,10,22,06,02,1.60
2018,10,22,06,03,1.70
2018,10,22,06,04,1.70
2018,10,22,06,05,1.70
2018,10,22,06,06,1.70
2018,10,22,06,07,1.70
2018,10,22,06,08,1.70
2018,10,22,06,09,1.70
2018,10,22,06,10,1.70
2018,10,22,06,11,1.60
2018,10,22,06,12,1.60
2018,10,22,06,13,1.60
2018,10,22,06,14,1.60
2018,10,22,06,15,1.60
2018,10,22,06,16,1.60
2018,10,22,06,17,1.50
2018,10,22,06,18,1.50
2018,10,22,06,19,1.50
2018,10,22,06,20,1.50
2018,10,22,06,21,1.50
2018,10,22,06,22,1.50
2018,10,22,06,23,1.50
2018,10,22,06,24,1.60
2018,10,22,06,25,1.60
2018,10,22,06,26,1.60
2018,10,22,06,27,1.60
2018,10,22,06,28,1.60
2018,10,22,06,29,1.60
2018,10,22,06,30,1.60
2018,10,22,06,31,1.70
2018,10,22,06,32,1.70
2018,10,22,06,33,1.70
2018,10,22,06,34,1.70
2018,10,22,06,35,1.70
2018,10,22,06,36,1.60
2018,10,22,06,37,1.60
2018,10,22,06,38,1.60
2018,10,22,06,39,1.60
2018,10,22,06,40,1.60
2018,10,22,06,41,1.60
2018,10,22,06,42,1.60
2018,10,22,06,43,1.60
2018,10,22,06,44,1.60
2018,10,22,06,45,1.60
2018,10,22,06,46,1.60
2018,10,22,06,47,1.60
2018,10,22,06,48,1.60
2018,10,22,06,49,1.70
2018,10,22,06,50,1.70
2018,10,22,06,51,1.70
2018,10,22,06,52,1.70
2018,10,22,06,53,1.70
2018,10,22,06,54,1.70
2018,10,22,06,55,1.70
2018,10,22,06,56,1.70
2018,10,22,06,57,1.70
2018,10,22,06,58,1.70
2018,10,22,06,59,1.70
2018,10,22,07,00,1.70
2018,10,22,07,01,1.70
2018,10,22,07,02,1.80
2018,10,22,07,03,1.80
2018,10,22,07,04,1.80
2018,10,22,07,05,1.80
2018,10,22,07,06,1.80
2018,10,22,07,07,1.80
2018,10,22,07,08,1.80
2018,10,22,07,09,1.80
2018,10,22,07,10,1.80
2018,10,22,07,11,1.80
2018,10,22,07,12,1.90
2018,10,22,07,13,1.90
2018,10,22,07,14,1.90
2018,10,22,07,15,2.00
2018,10,22,07,16,2.00
2018,10,22,07,17,2.10
2018,10,22,07,18,2.10
2018,10,22,07,19,2.00
2018,10,22,07,20,2.00
2018,10,22,07,21,1.80
2018,10,22,07,22,1.70
2018,10,22,07,23,1.60
2018,10,22,07,24,1.60
2018,10,22,07,25,1.50
2018,10,22,07,26,1.50
2018,10,22,07,27,1.40
2018,10,22,07,28,1.40
2018,10,22,07,29,1.40
2018,10,22,07,30,1.40
2018,10,22,07,31,1.40
2018,10,22,07,32,1.30
2018,10,22,07,33,1.30
2018,10,22,07,34,1.30
2018,10,22,07,35,1.30
2018,10,22,07,36,1.30
2018,10,22,07,37,1.30
2018,10,22,07,38,1.30
2018,10,22,07,39,1.30
2018,10,22,07,40,1.30
2018,10,22,07,41,1.40
2018,10,22,07,42,1.40
2018,10,22,07,43,1.50
2018,10,22,07,44,1.50
2018,10,22,07,45,1.60
2018,10,22,07,46,1.70
2018,10,22,07,47,1.70
2018,10,22,07,48,1.80
2018,10,22,07,49,1.90
2018,10,22,07,50,2.00
2018,10,22,07,51,2.00
2018,10,22,07,52,2.10
2018,10,22,07,53,2.10
2018,10,22,07,54,2.20
2018,10,22,07,55,2.20
2018,10,22,07,56,2.20
2018,10,22,07,57,2.30
2018,10,22,07,58,2.30
2018,10,22,07,59,2.30
2018,10,22,08,00,2.30
2018,10,22,08,01,2.40
2018,10,22,08,02,2.40
2018,10,22,08,03,2.40
2018,10,22,08,04,2.40
2018,10,22,08,05,2.40
2018,10,22,08,06,2.50
2018,10,22,08,07,2.50
2018,10,22,08,08,2.50
2018,10,22,08,09,2.60
2018,10,22,08,10,2.60
2018,10,22,08,11,2.60
2018,10,22,08,12,2.60
2018,10,22,08,13,2.60
2018,10,22,08,14,2.60
2018,10,22,08,15,2.60
2018,10,22,08,16,2.60
2018,10,22,08,17,2.60
2018,10,22,08,18,2.60
2018,10,22,08,19,2.60
2018,10,22,08,20,2.60
2018,10,22,08,21,2.60
2018,10,22,08,22,2.50
2018,10,22,08,23,2.60
2018,10,22,08,24,2.60
2018,10,22,08,25,2.60
2018,10,22,08,26,2.60
2018,10,22,08,27,2.60
2018,10,22,08,28,2.60
2018,10,22,08,29,2.60
2018,10,22,08,30,2.60
2018,10,22,08,31,2.60
2018,10,22,08,32,2.70
2018,10,22,08,33,2.70
2018,10,22,08,34,2.70
2018,10,22,08,35,2.80
2018,10,22,08,36,2.80
2018,10,22,08,37,2.80
2018,10,22,08,38,2.90
2018,10,22,08,39,2.90
2018,10,22,08,40,2.90
2018,10,22,08,41,2.90
2018,10,22,08,42,3.00
2018,10,22,08,43,3.00
2018,10,22,08,44,3.00
2018,10,22,08,45,3.10
2018,10,22,08,46,3.10
2018,10,22,08,47,3.10
2018,10,22,08,48,3.10
2018,10,22,08,49,3.20
2018,10,22,08,50,3.20
2018,10,22,08,51,3.30
2018,10,22,08,52,3.30
2018,10,22,08,53,3.30
2018,10,22,08,54,3.40
2018,10,22,08,55,3.40
2018,10,22,08,56,3.40
2018,10,22,08,57,3.50
2018,10,22,08,58,3.50
2018,10,22,08,59,3.60
2018,10,22,09,00,3.60
2018,10,22,09,01,3.60
2018,10,22,09,02,3.70
2018,10,22,09,03,3.70
2018,10,22,09,04,3.70
2018,10,22,09,05,3.80
2018,10,22,09,06,3.80
2018,10,22,09,07,3.80
2018,10,22,09,08,3.90
2018,10,22,09,09,3.90
2018,10,22,09,10,3.90
2018,10,22,09,11,3.90
2018,10,22,09,12,4.00
2018,10,22,09,13,4.00
2018,10,22,09,14,4.00
2018,10,22,09,15,4.10
2018,10,22,09,16,4.10
2018,10,22,09,17,4.10
2018,10,22,09,18,4.10
2018,10,22,09,19,4.20
2018,10,22,09,20,4.20
2018,10,22,09,21,4.20
2018,10,22,09,22,4.30
2018,10,22,09,23,4.30
2018,10,22,09,24,4.30
2018,10,22,09,25,4.30
2018,10,22,09,26,4.40
2018,10,22,09,27,4.40
2018,10,22,09,28,4.40
2018,10,22,09,29,4.50
2018,10,22,09,30,4.50
2018,10,22,09,31,4.50
2018,10,22,09,32,4.60
2018,10,22,09,33,4.60
2018,10,22,09,34,4.60
2018,10,22,09,35,4.70
2018,10,22,09,36,4.70
2018,10,22,09,37,4.70
2018,10,22,09,38,4.80
2018,10,22,09,39,4.80
2018,10,22,09,40,4.80
2018,10,22,09,41,4.90
2018,10,22,09,42,4.90
2018,10,22,09,43,5.00
2018,10,22,09,44,5.00
2018,10,22,09,45,5.10
2018,10,22,09,46,5.20
2018,10,22,09,47,5.20
2018,10,22,09,48,5.20
2018,10,22,09,49,5.30
2018,10,22,09,50,5.30
2018,10,22,09,51,5.30
2018,10,22,09,52,5.30
2018,10,22,09,53,5.40
2018,10,22,09,54,5.40
2018,10,22,09,55,5.50
2018,10,22,09,56,5.60
2018,10,22,09,57,5.60
2018,10,22,09,58,5.60
2018,10,22,09,59,5.70
2018,10,22,10,00,5.70
2018,10,22,10,01,5.70
2018,10,22,10,02,5.80
2018,10,22,10,03,5.80
2018,10,22,10,04,5.80
2018,10,22,10,05,5.80
2018,10,22,10,06,5.90
2018,10,22,10,07,5.90
2018,10,22,10,08,6.00
2018,10,22,10,09,6.00
2018,10,22,10,10,6.00
2018,10,22,10,11,6.10
2018,10,22,10,12,6.20
2018,10,22,10,13,6.20
2018,10,22,10,14,6.30
2018,10,22,10,15,6.30
2018,10,22,10,16,6.40
2018,10,22,10,17,6.40
2018,10,22,10,18,6.50
2018,10,22,10,19,6.50
2018,10,22,10,20,6.60
2018,10,22,10,21,6.60
2018,10,22,10,22,6.70
2018,10,22,10,23,6.70
2018,10,22,10,24,6.80
2018,10,22,10,25,6.80
2018,10,22,10,26,6.80
2018,10,22,10,27,6.90
2018,10,22,10,28,6.90
2018,10,22,10,29,7.00
2018,10,22,10,30,7.10
2018,10,22,10,31,7.10
2018,10,22,10,32,7.10
2018,10,22,10,33,7.20
2018,10,22,10,34,7.20
2018,10,22,10,35,7.30
2018,10,22,10,36,7.30
2018,10,22,10,37,7.40
2018,10,22,10,38,7.50
2018,10,22,10,39,7.50
2018,10,22,10,40,7.50
2018,10,22,10,41,7.70
2018,10,22,10,42,7.70
2018,10,22,10,43,7.80
2018,10,22,10,44,7.80
2018,10,22,10,45,7.80
2018,10,22,10,46,7.90
2018,10,22,10,47,7.90
2018,10,22,10,48,7.90
2018,10,22,10,49,8.00
2018,10,22,10,50,8.00
2018,10,22,10,51,8.10
2018,10,22,10,52,8.10
2018,10,22,10,53,8.20
2018,10,22,10,54,8.20
2018,10,22,10,55,8.30
2018,10,22,10,56,8.30
2018,10,22,10,57,8.40
2018,10,22,10,58,8.40
2018,10,22,10,59,8.40
2018,10,22,11,00,8.50
2018,10,22,11,01,8.60
2018,10,22,11,02,8.60
2018,10,22,11,03,8.70
2018,10,22,11,04,8.70
2018,10,22,11,05,8.70
2018,10,22,11,06,8.70
2018,10,22,11,07,8.70
2018,10,22,11,08,8.70
2018,10,22,11,09,8.70
2018,10,22,11,10,8.80
2018,10,22,11,11,8.90
2018,10,22,11,12,9.00
2018,10,22,11,13,9.10
2018,10,22,11,14,9.20
2018,10,22,11,15,9.30
2018,10,22,11,16,9.40
2018,10,22,11,17,9.40
2018,10,22,11,18,9.50
2018,10,22,11,19,9.60
2018,10,22,11,20,9.60
2018,10,22,11,21,9.70
2018,10,22,11,22,9.70
2018,10,22,11,23,9.80
2018,10,22,11,24,9.80
2018,10,22,11,25,9.80
2018,10,22,11,26,9.90
2018,10,22,11,27,9.90
2018,10,22,11,28,10.00
2018,10,22,11,29,10.00
2018,10,22,11,30,10.10
2018,10,22,11,31,10.00
2018,10,22,11,32,10.00
2018,10,22,11,33,10.00
2018,10,22,11,34,10.10
2018,10,22,11,35,10.20
2018,10,22,11,36,10.30
2018,10,22,11,37,10.40
2018,10,22,11,38,10.50
2018,10,22,11,39,10.50
2018,10,22,11,40,10.60
2018,10,22,11,41,10.70
2018,10,22,11,42,10.70
2018,10,22,11,43,10.80
2018,10,22,11,44,10.90
2018,10,22,11,45,10.90
2018,10,22,11,46,10.90
2018,10,22,11,47,11.00
2018,10,22,11,48,11.10
2018,10,22,11,49,11.20
2018,10,22,11,50,11.20
2018,10,22,11,51,11.30
2018,10,22,11,52,11.30
2018,10,22,11,53,11.30
2018,10,22,11,54,11.40
2018,10,22,11,55,11.50
2018,10,22,11,56,11.60
2018,10,22,11,57,11.70
2018,10,22,11,58,11.80
2018,10,22,11,59,11.90
2018,10,22,12,00,12.00
2018,10,22,12,01,12.00
2018,10,22,12,02,12.10
2018,10,22,12,03,12.10
2018,10,22,12,04,12.20
2018,10,22,12,05,12.20
2018,10,22,12,06,12.30
2018,10,22,12,07,12.30
2018,10,22,12,08,12.40
2018,10,22,12,09,12.50
2018,10,22,12,10,12.60
2018,10,22,12,11,12.70
2018,10,22,12,12,12.90
2018,10,22,12,13,13.00
2018,10,22,12,14,13.10
2018,10,22,12,15,13.10
2018,10,22,12,16,13.30
2018,10,22,12,17,13.30
2018,10,22,12,18,13.50
2018,10,22,12,19,13.50
2018,10,22,12,20,13.60
2018,10,22,12,21,13.60
2018,10,22,12,22,13.70
2018,10,22,12,23,13.70
2018,10,22,12,24,13.80
2018,10,22,12,25,13.70
2018,10,22,12,26,13.70
2018,10,22,12,27,13.60
2018,10,22,12,28,13.60
2018,10,22,12,29,13.60
2018,10,22,12,30,13.50
2018,10,22,12,31,13.50
2018,10,22,12,32,13.50
2018,10,22,12,33,13.60
2018,10,22,12,34,13.60
2018,10,22,12,35,13.60
2018,10,22,12,36,13.70
2018,10,22,12,37,13.70
2018,10,22,12,38,13.70
2018,10,22,12,39,13.70
2018,10,22,12,40,13.60
2018,10,22,12,41,13.60
2018,10,22,12,42,13.60
2018,10,22,12,43,13.60
2018,10,22,12,44,13.60
2018,10,22,12,45,13.60
2018,10,22,12,46,13.70
2018,10,22,12,47,13.70
2018,10,22,12,48,13.80
2018,10,22,12,49,13.90
2018,10,22,12,50,14.00
2018,10,22,12,51,14.10
2018,10,22,12,52,14.20
2018,10,22,12,53,14.30
2018,10,22,12,54,14.30
2018,10,22,12,55,14.30
2018,10,22,12,56,14.30
2018,10,22,12,57,14.30
2018,10,22,12,58,14.30
2018,10,22,12,59,14.30
2018,10,22,13,00,14.30
2018,10,22,13,01,14.30
2018,10,22,13,02,14.30
2018,10,22,13,03,14.30
2018,10,22,13,04,14.30
2018,10,22,13,05,14.30
2018,10,22,13,06,14.30
2018,10,22,13,07,14.30
2018,10,22,13,08,14.30
2018,10,22,13,09,14.40
2018,10,22,13,10,14.40
2018,10,22,13,11,14.40
2018,10,22,13,12,14.30
2018,10,22,13,13,14.20
2018,10,22,13,14,14.20
2018,10,22,13,15,14.20
2018,10,22,13,16,14.10
2018,10,22,13,17,14.10
2018,10,22,13,18,14.10
2018,10,22,13,19,14.10
2018,10,22,13,20,14.20
2018,10,22,13,21,14.20
2018,10,22,13,22,14.20
2018,10,22,13,23,14.20
2018,10,22,13,24,14.30
2018,10,22,13,25,14.30
2018,10,22,13,26,14.30
2018,10,22,13,27,14.40
2018,10,22,13,28,14.40
2018,10,22,13,29,14.50
2018,10,22,13,30,14.50
2018,10,22,13,31,14.50
2018,10,22,13,32,14.60
2018,10,22,13,33,14.70
2018,10,22,13,34,14.70
2018,10,22,13,35,14.70
2018,10,22,13,36,14.80
2018,10,22,13,37,14.80
2018,10,22,13,38,14.70
2018,10,22,13,39,14.70
2018,10,22,13,40,14.70
2018,10,22,13,41,14.70
2018,10,22,13,42,14.80
2018,10,22,13,43,14.80
2018,10,22,13,44,14.90
2018,10,22,13,45,15.00
2018,10,22,13,46,15.00
2018,10,22,13,47,15.00
2018,10,22,13,48,15.00
2018,10,22,13,49,14.90
2018,10,22,13,50,14.90
2018,10,22,13,51,14.80
2018,10,22,13,52,14.80
2018,10,22,13,53,14.70
2018,10,22,13,54,14.70
2018,10,22,13,55,14.70
2018,10,22,13,56,14.80
2018,10,22,13,57,14.80
2018,10,22,13,58,14.80
2018,10,22,13,59,14.90
2018,10,22,14,00,15.00
2018,10,22,14,01,15.10
2018,10,22,14,02,15.10
2018,10,22,14,03,15.10
2018,10,22,14,04,15.10
2018,10,22,14,05,15.10
2018,10,22,14,06,15.10
2018,10,22,14,07,15.00
2018,10,22,14,08,15.00
2018,10,22,14,09,14.90
2018,10,22,14,10,14.90
2018,10,22,14,11,14.90
2018,10,22,14,12,14.90
2018,10,22,14,13,14.80
2018,10,22,14,14,14.70
2018,10,22,14,15,14.70
2018,10,22,14,16,14.50
2018,10,22,14,17,14.40
2018,10,22,14,18,14.30
2018,10,22,14,19,14.20
2018,10,22,14,20,14.20
2018,10,22,14,21,14.20
2018,10,22,14,22,14.20
2018,10,22,14,23,14.10
2018,10,22,14,24,14.00
2018,10,22,14,25,13.90
2018,10,22,14,26,13.80
2018,10,22,14,27,13.80
2018,10,22,14,28,13.70
2018,10,22,14,29,13.70
2018,10,22,14,30,13.70
2018,10,22,14,31,13.70
2018,10,22,14,32,13.60
2018,10,22,14,33,13.60
2018,10,22,14,34,13.70
2018,10,22,14,35,13.80
2018,10,22,14,36,13.90
2018,10,22,14,37,13.90
2018,10,22,14,38,14.00
2018,10,22,14,39,14.10
2018,10,22,14,40,14.10
2018,10,22,14,41,14.00
2018,10,22,14,42,14.00
2018,10,22,14,43,14.00
2018,10,22,14,44,14.00
2018,10,22,14,45,14.00
2018,10,22,14,46,14.00
2018,10,22,14,47,14.10
2018,10,22,14,48,14.10
2018,10,22,14,49,14.20
2018,10,22,14,50,14.20
2018,10,22,14,51,14.30
2018,10,22,14,52,14.30
2018,10,22,14,53,14.40
2018,10,22,14,54,14.40
2018,10,22,14,55,14.40
2018,10,22,14,56,14.40
2018,10,22,14,57,14.40
2018,10,22,14,58,14.40
2018,10,22,14,59,14.40
2018,10,22,15,00,14.40
2018,10,22,15,01,14.40
2018,10,22,15,02,14.30
2018,10,22,15,03,14.30
2018,10,22,15,04,14.30
2018,10,22,15,05,14.30
2018,10,22,15,06,14.40
2018,10,22,15,07,14.40
2018,10,22,15,08,14.40
2018,10,22,15,09,14.40
2018,10,22,15,10,14.30
2018,10,22,15,11,14.30
2018,10,22,15,12,14.30
2018,10,22,15,13,14.30
2018,10,22,15,14,14.20
2018,10,22,15,15,14.20
2018,10,22,15,16,14.10
2018,10,22,15,17,14.10
2018,10,22,15,18,14.10
2018,10,22,15,19,14.10
2018,10,22,15,20,14.00
2018,10,22,15,21,14.00
2018,10,22,15,22,13.90
2018,10,22,15,23,13.80
2018,10,22,15,24,13.70
2018,10,22,15,25,13.70
2018,10,22,15,26,13.70
2018,10,22,15,27,13.60
2018,10,22,15,28,13.60
2018,10,22,15,29,13.50
2018,10,22,15,30,13.50
2018,10,22,15,31,13.50
2018,10,22,15,32,13.50
2018,10,22,15,33,13.50
2018,10,22,15,34,13.50
2018,10,22,15,35,13.60
2018,10,22,15,36,13.60
2018,10,22,15,37,13.70
2018,10,22,15,38,13.70
2018,10,22,15,39,13.80
2018,10,22,15,40,13.80
2018,10,22,15,41,13.80
2018,10,22,15,42,13.80
2018,10,22,15,43,13.70
2018,10,22,15,44,13.80
2018,10,22,15,45,13.70
2018,10,22,15,46,13.70
2018,10,22,15,47,13.70
2018,10,22,15,48,13.80
2018,10,22,15,49,13.80
2018,10,22,15,50,13.70
2018,10,22,15,51,13.70
2018,10,22,15,52,13.70
2018,10,22,15,53,13.70
2018,10,22,15,54,13.70
2018,10,22,15,55,13.70
2018,10,22,15,56,13.80
2018,10,22,15,57,13.80
2018,10,22,15,58,13.80
2018,10,22,15,59,13.80
2018,10,22,16,00,13.80
2018,10,22,16,01,13.80
2018,10,22,16,02,13.70
2018,10,22,16,03,13.70
2018,10,22,16,04,13.70
2018,10,22,16,05,13.60
2018,10,22,16,06,13.60
2018,10,22,16,07,13.60
2018,10,22,16,08,13.70
2018,10,22,16,09,13.60
2018,10,22,16,10,13.60
2018,10,22,16,11,13.60
2018,10,22,16,12,13.60
2018,10,22,16,13,13.60
2018,10,22,16,14,13.50
2018,10,22,16,15,13.50
2018,10,22,16,16,13.40
2018,10,22,16,17,13.40
2018,10,22,16,18,13.40
2018,10,22,16,19,13.50
2018,10,22,16,20,13.50
2018,10,22,16,21,13.50
2018,10,22,16,22,13.50
2018,10,22,16,23,13.60
2018,10,22,16,24,13.60
2018,10,22,16,25,13.60
2018,10,22,16,26,13.70
2018,10,22,16,27,13.70
2018,10,22,16,28,13.70
2018,10,22,16,29,13.70
2018,10,22,16,30,13.70
2018,10,22,16,31,13.60
2018,10,22,16,32,13.50
2018,10,22,16,33,13.40
2018,10,22,16,34,13.40
2018,10,22,16,35,13.40
2018,10,22,16,36,13.30
2018,10,22,16,37,13.30
2018,10,22,16,38,13.30
2018,10,22,16,39,13.40
2018,10,22,16,40,13.40
2018,10,22,16,41,13.40
2018,10,22,16,42,13.40
2018,10,22,16,43,13.40
2018,10,22,16,44,13.40
2018,10,22,16,45,13.40
2018,10,22,16,46,13.30
2018,10,22,16,47,13.30
2018,10,22,16,48,13.30
2018,10,22,16,49,13.30
2018,10,22,16,50,13.40
2018,10,22,16,51,13.40
2018,10,22,16,52,13.50
2018,10,22,16,53,13.50
2018,10,22,16,54,13.50
2018,10,22,16,55,13.60
2018,10,22,16,56,13.60
2018,10,22,16,57,13.60
2018,10,22,16,58,13.60
2018,10,22,16,59,13.60
2018,10,22,17,00,13.50
2018,10,22,17,01,13.50
2018,10,22,17,02,13.50
2018,10,22,17,03,13.50
2018,10,22,17,04,13.40
2018,10,22,17,05,13.40
2018,10,22,17,06,13.40
2018,10,22,17,07,13.40
2018,10,22,17,08,13.40
2018,10,22,17,09,13.40
2018,10,22,17,10,13.30
2018,10,22,17,11,13.30
2018,10,22,17,12,13.20
2018,10,22,17,13,13.20
2018,10,22,17,14,13.10
2018,10,22,17,15,13.10
2018,10,22,17,16,13.10
2018,10,22,17,17,13.00
2018,10,22,17,18,12.90
2018,10,22,17,19,12.90
2018,10,22,17,20,12.80
2018,10,22,17,21,12.70
2018,10,22,17,22,12.60
2018,10,22,17,23,12.50
2018,10,22,17,24,12.50
2018,10,22,17,25,12.40
2018,10,22,17,26,12.30
2018,10,22,17,27,12.20
2018,10,22,17,28,12.10
2018,10,22,17,29,12.00
2018,10,22,17,30,12.00
2018,10,22,17,31,11.90
2018,10,22,17,32,11.80
2018,10,22,17,33,11.80
2018,10,22,17,34,11.70
2018,10,22,17,35,11.60
2018,10,22,17,36,11.50
2018,10,22,17,37,11.50
2018,10,22,17,38,11.40
2018,10,22,17,39,11.30
2018,10,22,17,40,11.30
2018,10,22,17,41,11.20
2018,10,22,17,42,11.20
2018,10,22,17,43,11.10
2018,10,22,17,44,11.10
2018,10,22,17,45,11.00
2018,10,22,17,46,10.90
2018,10,22,17,47,10.80
2018,10,22,17,48,10.80
2018,10,22,17,49,10.70